EWG86H LOWG-EDDB

Flight info

Callsign EWG86H
Flight time 0h 58m
Altitude 34000
Route MILGO DCT LNZ DCT PINQI DCT GAVLI T203 ATGUP ATGUP1R
Aircraft A319/M-SDE3FGHIRWY/LB1

Departure

Time 2026-05-08 17:12
Airport Graz Airport (LOWG)

Arrival

Time 2026-05-08 18:11
Airport Berlin Brandenburg Airport (EDDB)
Time Latitude Longitude Altitude Speed Heading
2026-05-08 16:46 46.99586 15.44325 1107 ft 0 kts 127°
2026-05-08 17:07 46.99566 15.44334 1109 ft 6 kts 181°
2026-05-08 17:07 46.99556 15.44274 1113 ft 9 kts 297°
2026-05-08 17:08 46.99617 15.44223 1108 ft 11 kts 348°
2026-05-08 17:08 46.99707 15.44199 1108 ft 14 kts 350°
2026-05-08 17:08 46.99805 15.44174 1110 ft 16 kts 349°
2026-05-08 17:08 46.99929 15.44140 1113 ft 19 kts 349°
2026-05-08 17:09 47.00059 15.44104 1119 ft 19 kts 349°
2026-05-08 17:09 47.00192 15.44069 1119 ft 19 kts 351°
2026-05-08 17:09 47.00305 15.44018 1120 ft 16 kts 320°
2026-05-08 17:09 47.00360 15.43910 1116 ft 9 kts 304°
2026-05-08 17:10 47.00395 15.43835 1122 ft 6 kts 304°
2026-05-08 17:10 47.00400 15.43824 1119 ft 0 kts 304°
2026-05-08 17:10 47.00402 15.43821 1119 ft 1 kts 304°
2026-05-08 17:11 47.00424 15.43770 1120 ft 10 kts 298°
2026-05-08 17:11 47.00430 15.43671 1126 ft 10 kts 262°
2026-05-08 17:11 47.00371 15.43615 1126 ft 12 kts 172°
2026-05-08 17:11 47.00148 15.43676 1120 ft 70 kts 169°
2026-05-08 17:12 46.99406 15.43882 1110 ft 144 kts 169°
2026-05-08 17:12 46.98238 15.44213 1220 ft 190 kts 169°
2026-05-08 17:12 46.96910 15.44568 1777 ft 194 kts 168°
2026-05-08 17:12 46.95589 15.44923 2503 ft 195 kts 168°
2026-05-08 17:13 46.94220 15.45306 3001 ft 206 kts 168°
2026-05-08 17:13 46.92790 15.45696 3740 ft 210 kts 171°
2026-05-08 17:13 46.91341 15.45399 4537 ft 216 kts 204°
2026-05-08 17:13 46.90178 15.44006 5358 ft 222 kts 233°
2026-05-08 17:14 46.89616 15.41935 6147 ft 226 kts 264°
2026-05-08 17:14 46.89843 15.39645 6951 ft 228 kts 295°
2026-05-08 17:14 46.90827 15.37857 7737 ft 229 kts 326°
2026-05-08 17:14 46.92189 15.36712 8545 ft 230 kts 332°
2026-05-08 17:15 46.93592 15.35597 9446 ft 229 kts 332°
2026-05-08 17:15 46.95004 15.34478 10263 ft 231 kts 332°
2026-05-08 17:15 46.96426 15.33348 10995 ft 235 kts 331°
2026-05-08 17:15 46.97871 15.32198 11735 ft 238 kts 331°
2026-05-08 17:16 46.99414 15.31046 12125 ft 261 kts 333°
2026-05-08 17:16 47.01120 15.29833 12419 ft 284 kts 333°
2026-05-08 17:16 47.02980 15.28531 12667 ft 308 kts 333°
2026-05-08 17:16 47.04984 15.27129 12892 ft 330 kts 333°
2026-05-08 17:17 47.07091 15.25651 13431 ft 340 kts 333°
2026-05-08 17:17 47.09238 15.24135 14105 ft 344 kts 333°
2026-05-08 17:17 47.11408 15.22595 14746 ft 348 kts 333°
2026-05-08 17:17 47.13597 15.21037 15391 ft 352 kts 333°
2026-05-08 17:18 47.15812 15.19459 16035 ft 355 kts 332°
2026-05-08 17:18 47.18047 15.17863 16680 ft 359 kts 332°
2026-05-08 17:18 47.20302 15.16250 17303 ft 363 kts 332°
2026-05-08 17:18 47.22584 15.14618 17951 ft 366 kts 332°
2026-05-08 17:19 47.24885 15.12965 18550 ft 370 kts 332°
2026-05-08 17:19 47.27207 15.11294 19114 ft 373 kts 332°
2026-05-08 17:19 47.29546 15.09600 19682 ft 376 kts 330°
2026-05-08 17:19 47.31727 15.07556 20264 ft 378 kts 323°
2026-05-08 17:20 47.33878 15.05308 20848 ft 380 kts 323°
2026-05-08 17:20 47.36048 15.03042 21417 ft 384 kts 323°
2026-05-08 17:20 47.38237 15.00756 21958 ft 387 kts 322°
2026-05-08 17:20 47.40436 14.98456 22486 ft 390 kts 322°
2026-05-08 17:21 47.42663 14.96125 23021 ft 393 kts 322°
2026-05-08 17:21 47.44900 14.93780 23548 ft 396 kts 322°
2026-05-08 17:21 47.47155 14.91415 23992 ft 399 kts 322°
2026-05-08 17:21 47.49428 14.89026 24405 ft 403 kts 322°
2026-05-08 17:22 47.51719 14.86614 24831 ft 405 kts 321°
2026-05-08 17:22 47.54025 14.84185 25269 ft 408 kts 321°
2026-05-08 17:22 47.56346 14.81736 25692 ft 411 kts 321°
2026-05-08 17:22 47.58678 14.79276 26112 ft 414 kts 321°
2026-05-08 17:23 47.61028 14.76795 26534 ft 416 kts 321°
2026-05-08 17:23 47.63389 14.74296 26938 ft 419 kts 321°
2026-05-08 17:23 47.65768 14.71774 27308 ft 422 kts 320°
2026-05-08 17:23 47.68160 14.69238 27687 ft 424 kts 320°
2026-05-08 17:24 47.70570 14.66682 28092 ft 426 kts 320°
2026-05-08 17:24 47.72987 14.64117 28564 ft 427 kts 320°
2026-05-08 17:24 47.75401 14.61553 28992 ft 429 kts 320°
2026-05-08 17:24 47.77830 14.58965 29369 ft 430 kts 319°
2026-05-08 17:25 47.80270 14.56359 29741 ft 432 kts 319°
2026-05-08 17:25 47.82687 14.53778 30077 ft 435 kts 319°
2026-05-08 17:25 47.85151 14.51147 30403 ft 437 kts 319°
2026-05-08 17:25 47.87628 14.48496 30742 ft 439 kts 319°
2026-05-08 17:26 47.90109 14.45836 31058 ft 440 kts 319°
2026-05-08 17:26 47.92603 14.43163 31368 ft 442 kts 319°
2026-05-08 17:26 47.95101 14.40480 31656 ft 444 kts 318°
2026-05-08 17:26 47.97609 14.37782 32004 ft 444 kts 318°
2026-05-08 17:27 48.00113 14.35090 32396 ft 444 kts 318°
2026-05-08 17:27 48.02619 14.32393 32773 ft 444 kts 318°
2026-05-08 17:27 48.05122 14.29693 33152 ft 444 kts 317°
2026-05-08 17:27 48.07622 14.26989 33536 ft 444 kts 317°
2026-05-08 17:28 48.10126 14.24276 33921 ft 444 kts 317°
2026-05-08 17:28 48.12630 14.21562 34042 ft 441 kts 317°
2026-05-08 17:28 48.17563 14.16221 34056 ft 437 kts 317°
2026-05-08 17:29 48.22732 14.11337 34057 ft 446 kts 329°
2026-05-08 17:29 48.28742 14.08809 34058 ft 458 kts 344°
2026-05-08 17:30 48.35024 14.07190 34059 ft 458 kts 344°
2026-05-08 17:30 48.41316 14.05556 34067 ft 458 kts 344°
2026-05-08 17:31 48.47594 14.03905 34080 ft 458 kts 343°
2026-05-08 17:31 48.53866 14.02256 34082 ft 457 kts 343°
2026-05-08 17:32 48.60132 14.00610 34087 ft 457 kts 343°
2026-05-08 17:32 48.66393 13.98959 34098 ft 456 kts 343°
2026-05-08 17:33 48.72487 13.96695 34109 ft 448 kts 336°
2026-05-08 17:33 48.78447 13.94010 34104 ft 447 kts 336°
2026-05-08 17:34 48.84367 13.91348 34089 ft 446 kts 336°
2026-05-08 17:34 48.90362 13.88649 34101 ft 446 kts 336°
2026-05-08 17:35 48.96256 13.85992 34129 ft 444 kts 336°
2026-05-08 17:35 49.02174 13.83315 34116 ft 443 kts 336°
2026-05-08 17:36 49.08074 13.80638 34115 ft 442 kts 336°
2026-05-08 17:36 49.13961 13.77952 34130 ft 441 kts 337°
2026-05-08 17:37 49.19820 13.75278 34138 ft 439 kts 338°
2026-05-08 17:37 49.25663 13.72612 34136 ft 437 kts 338°
2026-05-08 17:38 49.31445 13.69966 34126 ft 436 kts 338°
2026-05-08 17:38 49.37255 13.67287 34125 ft 436 kts 338°
2026-05-08 17:39 49.43059 13.64613 34133 ft 435 kts 338°
2026-05-08 17:39 49.48846 13.61936 34128 ft 434 kts 338°
2026-05-08 17:40 49.54630 13.59262 34126 ft 434 kts 338°
2026-05-08 17:40 49.60410 13.56588 34124 ft 434 kts 339°
2026-05-08 17:41 49.66187 13.53898 34124 ft 434 kts 340°
2026-05-08 17:41 49.71961 13.51201 34117 ft 434 kts 340°
2026-05-08 17:42 49.77742 13.48493 34111 ft 434 kts 340°
2026-05-08 17:42 49.83479 13.45806 34113 ft 434 kts 340°
2026-05-08 17:43 49.89260 13.43094 34126 ft 434 kts 340°
2026-05-08 17:43 49.95029 13.40374 34142 ft 433 kts 340°
2026-05-08 17:44 50.00796 13.37645 34135 ft 433 kts 340°
2026-05-08 17:44 50.06557 13.34911 34134 ft 433 kts 340°
2026-05-08 17:45 50.12319 13.32179 34145 ft 433 kts 340°
2026-05-08 17:45 50.18074 13.29445 34143 ft 432 kts 340°
2026-05-08 17:46 50.23783 13.26729 34142 ft 432 kts 340°
2026-05-08 17:46 50.29522 13.23986 34141 ft 432 kts 340°
2026-05-08 17:47 50.35266 13.21238 34140 ft 432 kts 340°
2026-05-08 17:47 50.40042 13.18933 34145 ft 432 kts 340°
2026-05-08 17:48 50.45814 13.16307 34140 ft 434 kts 347°
2026-05-08 17:48 50.48823 13.15833 34140 ft 437 kts 358°
2026-05-08 17:48 50.51857 13.16209 34140 ft 440 kts
2026-05-08 17:49 50.54822 13.17432 34139 ft 442 kts 19°
2026-05-08 17:49 50.57629 13.19451 34141 ft 444 kts 26°
2026-05-08 17:49 50.63137 13.23891 33668 ft 446 kts 25°
2026-05-08 17:50 50.65917 13.26036 33111 ft 444 kts 19°
2026-05-08 17:50 50.68863 13.27417 32589 ft 441 kts 12°
2026-05-08 17:50 50.71838 13.28623 32065 ft 442 kts 12°
2026-05-08 17:50 50.74816 13.29827 31552 ft 443 kts 12°
2026-05-08 17:51 50.77804 13.31036 31051 ft 444 kts 12°
2026-05-08 17:51 50.80802 13.32254 30549 ft 445 kts 12°
2026-05-08 17:51 50.83796 13.33476 30059 ft 444 kts 12°
2026-05-08 17:51 50.86788 13.34701 29483 ft 445 kts 12°
2026-05-08 17:52 50.89783 13.35933 28919 ft 445 kts 12°
2026-05-08 17:52 50.92788 13.37168 28366 ft 446 kts 12°
2026-05-08 17:52 50.98769 13.39616 27303 ft 448 kts 12°
2026-05-08 17:53 51.01816 13.40861 26772 ft 445 kts 12°
2026-05-08 17:53 51.04767 13.42069 26282 ft 442 kts 12°
2026-05-08 17:53 51.07729 13.43289 25778 ft 438 kts 12°
2026-05-08 17:53 51.10665 13.44503 25287 ft 435 kts 12°
2026-05-08 17:54 51.13584 13.45707 24800 ft 431 kts 12°
2026-05-08 17:54 51.16482 13.46902 24322 ft 429 kts 12°
2026-05-08 17:54 51.19356 13.48089 23854 ft 426 kts 12°
2026-05-08 17:54 51.22211 13.49270 23320 ft 423 kts 12°
2026-05-08 17:55 51.25045 13.50446 22771 ft 419 kts 12°
2026-05-08 17:55 51.27856 13.51616 22242 ft 416 kts 12°
2026-05-08 17:55 51.30642 13.52772 21711 ft 412 kts 12°
2026-05-08 17:55 51.33410 13.53918 21197 ft 409 kts 12°
2026-05-08 17:56 51.36156 13.55056 20685 ft 406 kts 12°
2026-05-08 17:56 51.38848 13.56177 20188 ft 403 kts 12°
2026-05-08 17:56 51.41595 13.57285 19687 ft 399 kts
2026-05-08 17:56 51.44287 13.57536 19210 ft 390 kts 352°
2026-05-08 17:57 51.46893 13.56607 18728 ft 380 kts 339°
2026-05-08 17:57 51.49398 13.55318 18236 ft 376 kts 339°
2026-05-08 17:57 51.51867 13.54040 17708 ft 371 kts 339°
2026-05-08 17:57 51.54302 13.52778 17172 ft 365 kts 340°
2026-05-08 17:58 51.56709 13.51532 16651 ft 360 kts 340°
2026-05-08 17:58 51.59074 13.50304 16143 ft 356 kts 339°
2026-05-08 17:58 51.61412 13.49061 15638 ft 351 kts 339°
2026-05-08 17:58 51.63717 13.47830 15139 ft 347 kts 339°
2026-05-08 17:59 51.65997 13.46608 14647 ft 343 kts 339°
2026-05-08 17:59 51.68247 13.45400 14273 ft 337 kts 339°
2026-05-08 17:59 51.70431 13.44229 14172 ft 326 kts 339°
2026-05-08 17:59 51.72575 13.43079 14190 ft 324 kts 339°
2026-05-08 18:00 51.74716 13.41932 14189 ft 324 kts 339°
2026-05-08 18:00 51.78964 13.39634 13441 ft 323 kts 339°
2026-05-08 18:00 51.81085 13.38468 12959 ft 321 kts 339°
2026-05-08 18:01 51.83189 13.37302 12495 ft 319 kts 339°
2026-05-08 18:01 51.85278 13.36132 12035 ft 316 kts 339°
2026-05-08 18:01 51.87352 13.34961 11578 ft 314 kts 339°
2026-05-08 18:01 51.89405 13.33791 11163 ft 311 kts 339°
2026-05-08 18:02 51.91433 13.32626 10767 ft 308 kts 339°
2026-05-08 18:02 51.93443 13.31473 10380 ft 305 kts 340°
2026-05-08 18:02 51.95431 13.30377 9981 ft 299 kts 341°
2026-05-08 18:02 51.97392 13.29339 9551 ft 295 kts 341°
2026-05-08 18:03 51.99338 13.28339 9117 ft 292 kts 342°
2026-05-08 18:03 52.01262 13.27369 8711 ft 289 kts 342°
2026-05-08 18:03 52.03155 13.26422 8299 ft 287 kts 343°
2026-05-08 18:03 52.05049 13.25479 7902 ft 284 kts 343°
2026-05-08 18:04 52.06939 13.24538 7492 ft 284 kts 343°
2026-05-08 18:04 52.08822 13.23597 7090 ft 282 kts 343°
2026-05-08 18:04 52.10692 13.22656 6699 ft 281 kts 343°
2026-05-08 18:04 52.12557 13.21714 6283 ft 280 kts 343°
2026-05-08 18:05 52.14429 13.20840 5863 ft 279 kts 350°
2026-05-08 18:05 52.16342 13.20422 5453 ft 277 kts 355°
2026-05-08 18:05 52.18252 13.20076 5047 ft 277 kts 355°
2026-05-08 18:05 52.20152 13.19721 4620 ft 271 kts 355°
2026-05-08 18:06 52.21989 13.19373 4285 ft 260 kts 355°
2026-05-08 18:06 52.23755 13.19040 3982 ft 253 kts 355°
2026-05-08 18:06 52.25500 13.18850 3666 ft 249 kts
2026-05-08 18:06 52.27102 13.19664 3354 ft 236 kts 31°
2026-05-08 18:07 52.28303 13.21409 3068 ft 231 kts 55°
2026-05-08 18:07 52.28982 13.23649 3013 ft 216 kts 70°
2026-05-08 18:07 52.29522 13.25890 2875 ft 205 kts 69°
2026-05-08 18:07 52.30035 13.28010 2655 ft 195 kts 69°
2026-05-08 18:08 52.30512 13.29992 2389 ft 180 kts 69°
2026-05-08 18:08 52.30952 13.31823 2152 ft 166 kts 69°
2026-05-08 18:08 52.31352 13.33490 1942 ft 150 kts 70°
2026-05-08 18:08 52.31722 13.35033 1743 ft 143 kts 69°
2026-05-08 18:09 52.32079 13.36526 1548 ft 140 kts 69°
2026-05-08 18:09 52.32433 13.38006 1358 ft 139 kts 69°
2026-05-08 18:09 52.32784 13.39472 1168 ft 139 kts 69°
2026-05-08 18:09 52.33131 13.40926 976 ft 138 kts 70°
2026-05-08 18:10 52.33485 13.42406 785 ft 138 kts 70°
2026-05-08 18:10 52.33833 13.43837 595 ft 137 kts 68°
2026-05-08 18:10 52.34179 13.45280 420 ft 136 kts 70°
2026-05-08 18:10 52.34516 13.46715 237 ft 135 kts 69°
2026-05-08 18:11 52.34844 13.48088 154 ft 116 kts 69°
2026-05-08 18:11 52.35037 13.48930 154 ft 44 kts 69°
2026-05-08 18:11 52.35162 13.49262 154 ft 25 kts 47°
2026-05-08 18:11 52.35245 13.49383 154 ft 6 kts 39°
2026-05-08 18:12 52.35283 13.49433 154 ft 7 kts 39°
2026-05-08 18:12 52.35330 13.49495 154 ft 10 kts 39°
2026-05-08 18:12 52.35390 13.49577 154 ft 13 kts 40°
2026-05-08 18:12 52.35454 13.49688 154 ft 14 kts 63°
2026-05-08 18:13 52.35489 13.49832 154 ft 12 kts 70°
2026-05-08 18:13 52.35522 13.49977 154 ft 15 kts 70°
2026-05-08 18:13 52.35562 13.50148 154 ft 17 kts 69°
2026-05-08 18:13 52.35608 13.50340 154 ft 19 kts 68°
2026-05-08 18:14 52.35642 13.50486 154 ft 12 kts 69°
2026-05-08 18:14 52.35652 13.50527 154 ft 4 kts 68°
2026-05-08 18:14 52.35666 13.50583 155 ft 7 kts 69°
2026-05-08 18:14 52.35696 13.50674 155 ft 11 kts 42°
2026-05-08 18:15 52.35775 13.50665 154 ft 11 kts 338°
2026-05-08 18:15 52.35857 13.50635 155 ft 13 kts 18°
2026-05-08 18:15 52.35907 13.50770 155 ft 15 kts 68°
2026-05-08 18:15 52.35946 13.50938 155 ft 13 kts 70°
2026-05-08 18:16 52.35969 13.51041 155 ft 5 kts 71°
2026-05-08 18:16 52.35999 13.51087 155 ft 7 kts 12°
2026-05-08 18:16 52.36043 13.51063 155 ft 5 kts 338°
2026-05-08 18:16 52.36066 13.51049 155 ft 0 kts 339°